Location: Dumpton Point
(51.3500°N, 1.4433°E)
Time: 20:45:44
(UTC+00:00)

Vanguard 2 Rocket - Pass Details

Date: 26 September 2022
Orbit: 555 x 3321 km, 32.9° (Epoch: 05 December)

Event Time Altitude Azimuth Distance (km) Brightness Sun altitude
Rises 02:25:07 0° 233° (SW) 4,216 - -29.7°
Reaches altitude 10° 02:30:54 10° 201° (SSW) 2,604 - -29.0°
Maximum altitude 02:32:25 11° 186° (S) 2,381 - -28.9°
Drops below altitude 10° 02:33:49 10° 170° (S) 2,317 - -28.7°
Exits shadow 02:37:08 - 138° (SE) 2,740 9.4 -28.3°
Sets 02:37:50 0° 132° (SE) 2,914 9.6 -28.2°
